Le nostre stazioni meteo in Italia

Pubblicità
Il mio iltempo24.it
Isola Di Salina, Italia (16415): Temperatura & dewpoint: 13.08.2018 10:00:00 - 19.08.2018 10:00:00 (CEST)Isola Di Salina, Italia (16415): velocità del vento: 13.08.2018 10:00:00 - 19.08.2018 10:00:00 (CEST)Isola Di Salina, Italia (16415): direzione del vento: 13.08.2018 10:00:00 - 19.08.2018 10:00:00 (CEST)Isola Di Salina, Italia (16415): reduced air pressure: 13.08.2018 10:00:00 - 19.08.2018 10:00:00 (CEST)Isola Di Salina, Italia (16415): precipitazioni: 13.08.2018 10:00:00 - 19.08.2018 10:00:00 (CEST)
Data & Tempo tt [°C] td [°C] ff [km/h] ff [kn] dd ppp [hPa] rr [mm]
19.08.2018 10:00:00 - - - - - - -
19.08.2018 09:00:00 26,5 25,0 0 0 N 1015,4 -
19.08.2018 08:00:00 24,1 23,0 0 0 N 1015,2 0,0
19.08.2018 07:00:00 23,4 22,3 0 0 N 1015,5 -
19.08.2018 06:00:00 23,6 22,5 0 0 N 1015,0 -
19.08.2018 05:00:00 23,4 22,3 0 0 N 1015,1 -
19.08.2018 04:00:00 23,3 21,9 0 0 N 1015,2 -
19.08.2018 03:00:00 23,7 22,1 0 0 N 1015,6 -
19.08.2018 02:00:00 24,0 22,2 0 0 N 1015,5 0,0
19.08.2018 01:00:00 24,0 22,4 0 0 N 1015,7 -
19.08.2018 00:00:00 24,5 22,7 0 0 N 1016,3 -
18.08.2018 23:00:00 24,5 23,1 0 0 N 1016,2 -
18.08.2018 22:00:00 24,8 23,2 0 0 N 1016,2 -
18.08.2018 21:00:00 25,0 23,2 0 0 N 1015,9 -
18.08.2018 20:00:00 25,5 22,5 0 0 N 1015,4 0,0
18.08.2018 19:00:00 26,2 21,4 0 0 N 1015,2 -
18.08.2018 18:00:00 27,0 23,0 0 0 N 1015,3 -
18.08.2018 17:00:00 27,2 21,7 0 0 N 1015,1 -
18.08.2018 16:00:00 27,4 21,6 0 0 N 1015,1 -
18.08.2018 15:00:00 27,5 21,9 0 0 N 1015,1 -
18.08.2018 14:00:00 28,1 22,1 0 0 N 1015,4 0,0
18.08.2018 13:00:00 28,2 22,2 0 0 N 1015,8 -
18.08.2018 12:00:00 28,1 22,3 0 0 N 1015,9 -
18.08.2018 11:00:00 27,8 22,5 0 0 N 1016,1 -
18.08.2018 10:00:00 27,4 22,3 0 0 N 1015,6 -
18.08.2018 09:00:00 26,7 24,3 0 0 N 1015,3 -
18.08.2018 08:00:00 24,8 23,5 0 0 N 1015,0 0,0
18.08.2018 07:00:00 22,9 21,7 0 0 N 1015,1 -
18.08.2018 06:00:00 22,3 20,9 0 0 N 1014,7 -
18.08.2018 05:00:00 22,4 21,0 0 0 N 1014,4 -
18.08.2018 04:00:00 22,6 21,2 0 0 N 1014,3 -
18.08.2018 03:00:00 22,9 21,3 0 0 N 1014,5 -
18.08.2018 02:00:00 23,0 21,6 0 0 N 1014,8 0,0
18.08.2018 01:00:00 23,2 21,6 0 0 N 1015,1 -
18.08.2018 00:00:00 23,2 21,6 0 0 N 1015,0 -
17.08.2018 23:00:00 23,4 21,4 0 0 N 1015,2 -
17.08.2018 22:00:00 23,6 21,4 0 0 N 1015,4 -
17.08.2018 21:00:00 24,1 21,2 0 0 N 1014,8 -
17.08.2018 20:00:00 24,6 20,0 0 0 N 1014,4 0,0
17.08.2018 19:00:00 25,5 20,0 0 0 N 1013,9 -
17.08.2018 18:00:00 26,1 21,0 0 0 N 1013,7 -
17.08.2018 17:00:00 26,6 22,0 0 0 N 1013,9 -
17.08.2018 16:00:00 25,6 21,6 0 0 N 1014,0 -
17.08.2018 15:00:00 26,3 22,1 0 0 N 1014,1 -
17.08.2018 14:00:00 25,6 23,0 0 0 N 1014,5 0,0
17.08.2018 13:00:00 26,3 21,0 0 0 N 1014,6 -
17.08.2018 12:00:00 26,6 22,4 0 0 N 1014,7 -
17.08.2018 11:00:00 26,6 23,8 0 0 N 1014,6 -
17.08.2018 10:00:00 24,6 21,3 0 0 N 1014,5 -
17.08.2018 09:00:00 26,3 24,5 0 0 N 1014,2 -
17.08.2018 08:00:00 24,1 22,5 0 0 N 1013,8 0,0
17.08.2018 07:00:00 22,6 21,2 0 0 N 1013,6 -
17.08.2018 06:00:00 22,2 20,8 0 0 N 1013,5 -
17.08.2018 05:00:00 22,3 20,9 0 0 N 1013,2 -
17.08.2018 04:00:00 22,3 20,9 0 0 N 1013,2 -
17.08.2018 03:00:00 22,3 20,7 0 0 N 1013,3 -
17.08.2018 02:00:00 22,3 20,7 0 0 N 1013,5 0,0
17.08.2018 01:00:00 22,4 21,0 0 0 N 1013,5 -
17.08.2018 00:00:00 22,6 20,8 0 0 N 1013,7 -
16.08.2018 23:00:00 23,1 21,5 0 0 N 1013,4 -
16.08.2018 22:00:00 23,5 21,2 0 0 N 1013,2 -
16.08.2018 21:00:00 23,4 20,9 0 0 N 1013,2 -
16.08.2018 20:00:00 24,0 22,2 0 0 N 1012,8 -
16.08.2018 19:00:00 24,6 21,9 0 0 N 1012,7 -
16.08.2018 18:00:00 25,4 22,4 0 0 N 1012,5 -
16.08.2018 17:00:00 24,9 21,4 0 0 N 1012,5 -
16.08.2018 16:00:00 25,5 21,7 0 0 N 1012,4 -
16.08.2018 15:00:00 24,8 21,3 0 0 N 1012,9 -
16.08.2018 14:00:00 25,2 21,4 0 0 N 1013,2 0,0
16.08.2018 13:00:00 25,9 21,5 0 0 N 1013,2 -
16.08.2018 12:00:00 23,3 22,0 0 0 N 1013,3 -
16.08.2018 11:00:00 25,1 19,4 0 0 N 1012,9 -
16.08.2018 10:00:00 26,1 20,6 0 0 N 1012,4 -
16.08.2018 09:00:00 25,5 21,7 0 0 N 1012,4 -
16.08.2018 08:00:00 23,8 22,4 0 0 N 1012,4 0,0
16.08.2018 07:00:00 21,6 20,2 0 0 N 1012,3 -
16.08.2018 06:00:00 21,5 19,9 0 0 N 1012,0 -
16.08.2018 05:00:00 21,5 19,9 0 0 N 1011,8 -
16.08.2018 04:00:00 22,2 20,6 0 0 N 1011,9 -
16.08.2018 03:00:00 21,7 20,3 0 0 N 1012,0 -
16.08.2018 02:00:00 21,5 19,7 0 0 N 1012,3 0,0
16.08.2018 01:00:00 21,7 20,1 0 0 N 1012,6 -
16.08.2018 00:00:00 21,6 19,6 0 0 N 1012,6 -
15.08.2018 23:00:00 21,7 19,4 0 0 N 1012,4 -
15.08.2018 22:00:00 22,0 17,3 0 0 N 1012,5 -
15.08.2018 21:00:00 21,7 18,8 0 0 N 1012,6 -
15.08.2018 20:00:00 21,6 20,0 0 0 N 1012,3 -
15.08.2018 19:00:00 22,0 20,4 0 0 N 1012,2 -
15.08.2018 18:00:00 22,5 20,0 0 0 N 1012,7 -
15.08.2018 17:00:00 23,0 16,2 0 0 N 1012,5 -
15.08.2018 16:00:00 26,9 20,4 0 0 N 1012,0 -
15.08.2018 15:00:00 26,1 20,8 0 0 N 1011,7 -
15.08.2018 14:00:00 26,4 21,3 0 0 N 1012,6 0,0
15.08.2018 13:00:00 26,6 20,8 0 0 N 1012,4 -
15.08.2018 12:00:00 27,0 23,6 0 0 N 1012,3 -
15.08.2018 11:00:00 24,8 23,5 0 0 N 1012,3 -
15.08.2018 10:00:00 23,3 22,6 0 0 N 1012,4 -
15.08.2018 09:00:00 22,7 21,5 0 0 N 1012,3 -
15.08.2018 08:00:00 22,7 21,5 0 0 N 1013,0 -
15.08.2018 07:00:00 22,4 21,2 0 0 N 1012,4 -
15.08.2018 06:00:00 22,1 21,2 24 13 NNO 1012,3 -
15.08.2018 05:00:00 20,8 20,3 31 17 NNO 1011,4 -
15.08.2018 04:00:00 24,9 23,5 0 0 N 1011,2 -
15.08.2018 03:00:00 24,3 22,9 0 0 N 1011,3 -
15.08.2018 02:00:00 23,7 21,9 0 0 N 1011,1 -
15.08.2018 01:00:00 23,6 22,0 0 0 N 1012,3 -
15.08.2018 00:00:00 24,0 22,2 0 0 N 1012,4 -
14.08.2018 23:00:00 23,5 22,2 0 0 N 1012,6 -
14.08.2018 22:00:00 23,5 22,1 5 3 SO 1012,9 -
14.08.2018 21:00:00 24,1 22,8 0 0 N 1013,7 -
14.08.2018 20:00:00 24,3 23,2 0 0 N 1012,9 -
14.08.2018 19:00:00 26,2 24,6 24 13 NNO 1012,9 -
14.08.2018 18:00:00 27,5 24,7 15 8 NNO 1013,0 -
14.08.2018 17:00:00 28,6 23,2 8 4 N 1012,1 -
14.08.2018 16:00:00 28,7 25,7 11 6 NNO 1012,5 -
14.08.2018 15:00:00 28,4 26,2 13 7 NNO 1012,9 -
14.08.2018 14:00:00 28,1 25,5 0 0 N 1013,3 0,0
14.08.2018 13:00:00 28,8 25,4 0 0 N 1013,7 -
14.08.2018 12:00:00 29,0 25,1 0 0 N 1014,0 -
14.08.2018 11:00:00 29,1 25,0 0 0 N 1013,9 -
14.08.2018 10:00:00 28,5 25,5 0 0 N 1013,7 -
14.08.2018 09:00:00 27,5 25,5 0 0 N 1013,6 -
14.08.2018 08:00:00 26,0 24,9 0 0 N 1013,7 0,0
14.08.2018 07:00:00 24,1 22,5 0 0 N 1013,6 -
14.08.2018 06:00:00 24,1 22,5 0 0 N 1013,2 -
14.08.2018 05:00:00 24,6 22,2 0 0 N 1012,9 -
14.08.2018 04:00:00 24,6 22,6 0 0 N 1012,9 -
14.08.2018 03:00:00 24,7 23,1 0 0 N 1013,1 -
14.08.2018 02:00:00 25,2 23,4 0 0 N 1013,3 0,0
14.08.2018 01:00:00 25,3 23,5 0 0 N 1013,6 -
14.08.2018 00:00:00 25,2 22,2 0 0 N 1013,7 -
13.08.2018 23:00:00 25,4 22,2 0 0 N 1013,4 -
13.08.2018 22:00:00 25,3 23,5 0 0 N 1013,9 -
13.08.2018 21:00:00 25,6 23,8 2 1 NNO 1013,7 -
13.08.2018 20:00:00 26,5 23,9 0 0 N 1013,6 0,0
13.08.2018 19:00:00 27,4 23,8 0 0 N 1013,3 -
13.08.2018 18:00:00 28,3 24,3 2 1 N 1013,6 -
13.08.2018 17:00:00 28,3 26,5 0 0 N 1013,8 -
13.08.2018 16:00:00 28,3 26,5 0 0 N 1014,2 -
13.08.2018 15:00:00 28,7 26,3 0 0 N 1014,8 -
13.08.2018 14:00:00 27,9 26,1 4 2 ESE 1015,1 0,0
13.08.2018 13:00:00 28,4 26,6 5 3 ESE 1015,5 -
13.08.2018 12:00:00 28,1 26,3 9 5 E 1015,8 -
13.08.2018 11:00:00 28,6 26,8 0 0 N 1015,8 -
13.08.2018 10:00:00 28,2 26,8 0 0 N 1015,5 -

tt = Temperatura
td = dewpoint
ff = velocità del vento
dd = direzione del vento
ppp = reduced air pressure
rr = precipitazioni

Stazioni seguenti

WeatherPro
AMSI
MeteoEarth